Weather in Tursunzoda

Tajikistan     38˚30′39″N   68˚13′58″E
temp.,
°C
wind,
m/s
gust,
m/s
humid.,
%
clouds,
%
prec.,
mm/h
press.,
hPa
HPBL,
m
3 december, thu
thu323:00+8˚w115744 0.0 102423
02:00+6˚s015335 0.0 102522
05:00+6˚s015834 0.0 102522
08:00+6˚sw116469 0.0 102622
11:00+9˚sw115477 0.0 1026229
14:00+11˚sw1155100 0.1 1024325
17:00+9˚wsw1262100 0.1 102443
20:00+8˚sw3850100 0.0 1025363
4 december, fri
fri423:00+5˚wsw4565100 0.1 1026490
02:00+4˚sse0179100 0.3 1025227
05:00+4˚ne1287100 0.9 1026200
08:00+4˚ssw1189100 0.6 1027165
11:00+4˚wsw2493100 1.3 1028239
14:00+4˚wsw2288100 0.1 1027250
17:00+4˚wnw118699 0.1 1028117
20:00+4˚nnw018399 0.0 102952
5 december, sat
sat523:00+3˚ese1187100 0.1 102971
02:00+3˚ese1194100 0.1 1029116
05:00+3˚ene1293100 0.3 1028158
08:00+4˚nne1291100 0.1 1028201
11:00+6˚se227293 0.2 1027495
14:00+8˚sw11580 0.0 1025752
17:00+6˚wsw12680 0.0 102427
20:00+5˚nw01670 0.0 102622
6 december, sun
sun623:00+4˚sw017030 0.0 102622
02:00+4˚ene017075 0.0 102622
05:00+3˚ene126562 0.0 102622
08:00+3˚ene225953 0.0 102722
11:00+8˚ese124427 0.0 1026333
14:00+11˚ese12376 0.0 1023613
17:00+9˚ne114537 0.0 102225
20:00+7˚ne224097 0.0 102224
7 december, mon
mon723:00+8˚ne223998 0.0 102025
02:00+9˚ne2234100 0.0 101824
05:00+8˚wsw2343100 0.0 101732
08:00+6˚sw1359100 0.0 1020151
11:00+5˚sw2379100 1.3 1023294
14:00+3˚sw3593100 1.2 1024329
17:00+3˚w1194100 2.1 1026128
20:00+4˚nne1193100 0.4 1027106